Terminal Aerodrome Forecast
Issued by NWS

Home | Current Version | Previous Version | Text Only | Print | Product List | Glossary On
Versions: 1 2 3 4 5 6 7 8 9 10 11 12
000
FTUS46 KSTO 011130
TAFSCK
TAF
KSCK 011130Z 0112/0212 VRB04KT P6SM SCT150
     FM011700 30007KT P6SM FEW150
     FM020000 29012G20KT P6SM FEW120
     FM020800 31008KT P6SM FEW200=

USA.gov is the U.S. government's official web portal to all federal, state and local government web resources and services.